Time,TemperatureF,DewpointF,PressureIn,WindDirection,WindDirectionDegrees,WindSpeedMPH,WindSpeedGustMPH,Humidity,HourlyPrecipIn,Conditions,Clouds,dailyrainin,SolarRadiationWatts/m^2,SoftwareType,DateUTC
2013-03-26 00:00:00,61.4,18.8,29.88,NE,56,0.0,0.0,19,0.00,,,0.00,0,WeatherTracker,2013-03-26 07:00:00,
2013-03-26 00:10:00,61.0,20.8,29.87,NE,56,0.0,0.0,21,0.00,,,0.00,0,WeatherTracker,2013-03-26 07:10:00,
2013-03-26 00:15:00,60.7,20.5,29.87,NE,56,0.0,0.0,21,0.00,,,0.00,0,WeatherTracker,2013-03-26 07:15:00,
2013-03-26 00:25:00,59.6,19.6,29.87,NE,56,0.0,0.0,21,0.00,,,0.00,0,WeatherTracker,2013-03-26 07:25:00,
2013-03-26 00:30:00,59.3,19.4,29.87,NE,56,0.0,0.0,21,0.00,,,0.00,0,WeatherTracker,2013-03-26 07:30:00,
2013-03-26 00:40:00,58.6,20.9,29.87,NE,56,0.0,0.0,23,0.00,,,0.00,0,WeatherTracker,2013-03-26 07:40:00,
2013-03-26 00:45:00,58.3,20.7,29.87,NE,56,0.0,0.0,23,0.00,,,0.00,0,WeatherTracker,2013-03-26 07:45:00,
2013-03-26 00:55:00,57.8,21.3,29.87,NE,56,0.0,0.0,24,0.00,,,0.00,0,WeatherTracker,2013-03-26 07:55:00,
2013-03-26 01:05:00,57.2,21.7,29.86,NE,56,0.0,0.0,25,0.00,,,0.00,0,WeatherTracker,2013-03-26 08:05:00,
2013-03-26 01:15:00,56.6,20.2,29.87,NE,56,0.0,0.0,24,0.00,,,0.00,0,WeatherTracker,2013-03-26 08:15:00,
2013-03-26 01:25:00,56.2,20.9,29.86,NE,56,0.0,0.0,25,0.00,,,0.00,0,WeatherTracker,2013-03-26 08:25:00,
2013-03-26 01:30:00,56.0,20.7,29.86,NE,56,0.0,0.0,25,0.00,,,0.00,0,WeatherTracker,2013-03-26 08:30:00,
2013-03-26 01:35:00,55.9,20.6,29.86,NE,56,0.0,0.0,25,0.00,,,0.00,0,WeatherTracker,2013-03-26 08:35:00,
2013-03-26 01:45:00,55.8,21.4,29.86,NE,56,0.0,0.0,26,0.00,,,0.00,0,WeatherTracker,2013-03-26 08:45:00,
2013-03-26 01:50:00,55.7,21.4,29.86,NE,56,0.0,0.0,26,0.00,,,0.00,0,WeatherTracker,2013-03-26 08:50:00,
2013-03-26 02:00:00,55.4,20.2,29.86,NE,56,0.0,0.0,25,0.00,,,0.00,0,WeatherTracker,2013-03-26 09:00:00,
2013-03-26 02:12:00,55.1,19.9,29.85,NE,56,0.0,0.0,25,0.00,,,0.00,0,WeatherTracker,2013-03-26 09:12:00,
2013-03-26 02:20:00,55.1,20.8,29.85,NE,56,0.0,0.0,26,0.00,,,0.00,0,WeatherTracker,2013-03-26 09:20:00,
2013-03-26 02:30:00,55.3,21.9,29.85,NE,56,0.0,0.0,27,0.00,,,0.00,0,WeatherTracker,2013-03-26 09:30:00,
2013-03-26 02:35:00,55.3,21.0,29.85,NE,56,0.0,0.0,26,0.00,,,0.00,0,WeatherTracker,2013-03-26 09:35:00,
2013-03-26 02:40:00,55.3,21.0,29.84,NE,56,0.0,0.0,26,0.00,,,0.00,0,WeatherTracker,2013-03-26 09:40:00,
2013-03-26 02:45:00,55.4,20.2,29.84,NE,56,0.0,0.0,25,0.00,,,0.00,0,WeatherTracker,2013-03-26 09:45:00,
2013-03-26 02:55:00,55.7,20.4,29.84,NE,56,0.0,0.0,25,0.00,,,0.00,0,WeatherTracker,2013-03-26 09:55:00,
2013-03-26 03:00:00,56.0,20.7,29.83,NE,56,0.0,0.0,25,0.00,,,0.00,0,WeatherTracker,2013-03-26 10:00:00,
2013-03-26 03:10:00,56.4,20.1,29.83,NE,56,0.0,0.0,24,0.00,,,0.00,0,WeatherTracker,2013-03-26 10:10:00,
2013-03-26 03:15:00,56.5,20.2,29.83,NE,56,0.0,0.0,24,0.00,,,0.00,0,WeatherTracker,2013-03-26 10:15:00,
2013-03-26 03:25:00,56.7,20.3,29.83,NE,56,0.0,0.0,24,0.00,,,0.00,0,WeatherTracker,2013-03-26 10:25:00,
2013-03-26 03:35:00,56.8,20.4,29.83,NE,56,0.0,0.0,24,0.00,,,0.00,0,WeatherTracker,2013-03-26 10:35:00,
2013-03-26 03:45:00,56.7,20.3,29.83,NE,56,0.0,0.0,24,0.00,,,0.00,0,WeatherTracker,2013-03-26 10:45:00,
2013-03-26 03:50:00,56.5,21.1,29.83,NE,56,0.0,0.0,25,0.00,,,0.00,0,WeatherTracker,2013-03-26 10:50:00,
2013-03-26 04:00:00,56.2,20.9,29.83,NE,56,0.0,0.0,25,0.00,,,0.00,0,WeatherTracker,2013-03-26 11:00:00,
2013-03-26 04:05:00,55.9,21.5,29.83,NE,56,0.0,0.0,26,0.00,,,0.00,0,WeatherTracker,2013-03-26 11:05:00,
2013-03-26 04:10:00,55.7,21.4,29.83,NE,56,0.0,0.0,26,0.00,,,0.00,0,WeatherTracker,2013-03-26 11:10:00,
2013-03-26 04:15:00,55.4,21.1,29.83,NE,56,0.0,0.0,26,0.00,,,0.00,0,WeatherTracker,2013-03-26 11:15:00,
2013-03-26 04:25:00,54.9,21.6,29.83,NE,56,0.0,0.0,27,0.00,,,0.00,0,WeatherTracker,2013-03-26 11:25:00,
2013-03-26 04:35:00,54.4,22.0,29.83,NE,56,0.0,0.0,28,0.00,,,0.00,0,WeatherTracker,2013-03-26 11:35:00,
2013-03-26 04:45:00,54.1,21.7,29.83,NE,56,0.0,0.0,28,0.00,,,0.00,0,WeatherTracker,2013-03-26 11:45:00,
2013-03-26 04:50:00,54.0,21.6,29.83,NE,56,0.0,0.0,28,0.00,,,0.00,0,WeatherTracker,2013-03-26 11:50:00,
2013-03-26 05:00:00,53.7,22.2,29.83,NE,56,0.0,0.0,29,0.00,,,0.00,0,WeatherTracker,2013-03-26 12:00:00,
2013-03-26 05:10:00,53.6,22.9,29.83,NE,56,0.0,0.0,30,0.00,,,0.00,0,WeatherTracker,2013-03-26 12:10:00,
2013-03-26 05:20:00,53.2,22.6,29.83,NE,56,0.0,0.0,30,0.00,,,0.00,0,WeatherTracker,2013-03-26 12:20:00,
2013-03-26 05:25:00,53.1,21.7,29.84,NE,56,0.0,0.0,29,0.00,,,0.00,0,WeatherTracker,2013-03-26 12:25:00,
2013-03-26 05:35:00,52.7,22.1,29.84,NE,56,0.0,0.0,30,0.00,,,0.00,0,WeatherTracker,2013-03-26 12:35:00,
2013-03-26 05:45:00,52.5,21.2,29.84,NE,56,0.0,0.0,29,0.00,,,0.00,0,WeatherTracker,2013-03-26 12:45:00,
2013-03-26 05:50:00,52.5,21.2,29.84,NE,56,0.0,0.0,29,0.00,,,0.00,0,WeatherTracker,2013-03-26 12:50:00,
2013-03-26 05:55:00,52.6,22.1,29.84,NE,56,0.0,0.0,30,0.00,,,0.00,0,WeatherTracker,2013-03-26 12:55:00,
2013-03-26 06:05:00,52.6,22.8,29.84,NE,56,0.0,0.0,31,0.00,,,0.00,0,WeatherTracker,2013-03-26 13:05:00,
2013-03-26 06:10:00,52.5,23.5,29.85,NE,56,0.0,0.0,32,0.00,,,0.00,0,WeatherTracker,2013-03-26 13:10:00,
2013-03-26 06:20:00,52.1,23.2,29.85,NE,56,0.0,0.0,32,0.00,,,0.00,0,WeatherTracker,2013-03-26 13:20:00,
2013-03-26 06:25:00,51.9,22.2,29.85,NE,56,0.0,0.0,31,0.00,,,0.00,0,WeatherTracker,2013-03-26 13:25:00,
2013-03-26 06:30:00,51.8,22.1,29.85,NE,56,0.0,0.0,31,0.00,,,0.00,7,WeatherTracker,2013-03-26 13:30:00,
2013-03-26 06:35:00,51.7,23.5,29.85,NE,56,0.0,0.0,33,0.00,,,0.00,11,WeatherTracker,2013-03-26 13:35:00,
2013-03-26 06:45:00,51.5,23.4,29.85,NE,56,0.0,0.0,33,0.00,,,0.00,21,WeatherTracker,2013-03-26 13:45:00,
2013-03-26 06:50:00,51.5,23.4,29.86,NE,56,0.0,0.0,33,0.00,,,0.00,30,WeatherTracker,2013-03-26 13:50:00,
2013-03-26 07:00:00,51.5,22.6,29.86,NE,56,0.0,0.0,32,0.00,,,0.00,42,WeatherTracker,2013-03-26 14:00:00,
2013-03-26 07:10:00,51.7,22.8,29.86,NE,56,0.0,0.0,32,0.00,,,0.00,118,WeatherTracker,2013-03-26 14:10:00,
2013-03-26 07:15:00,51.9,22.2,29.87,NE,56,0.0,0.0,31,0.00,,,0.00,81,WeatherTracker,2013-03-26 14:15:00,
2013-03-26 07:20:00,52.2,22.5,29.87,NE,56,0.0,0.0,31,0.00,,,0.00,69,WeatherTracker,2013-03-26 14:20:00,
2013-03-26 07:30:00,53.1,25.5,29.88,NE,56,0.0,0.0,34,0.00,,,0.00,123,WeatherTracker,2013-03-26 14:30:00,
2013-03-26 07:35:00,53.7,24.6,29.88,NE,56,0.0,0.0,32,0.00,,,0.00,130,WeatherTracker,2013-03-26 14:35:00,
2013-03-26 07:40:00,54.3,24.3,29.88,NE,56,0.0,0.0,31,0.00,,,0.00,158,WeatherTracker,2013-03-26 14:40:00,
2013-03-26 07:50:00,55.5,24.6,29.88,NE,56,0.0,0.0,30,0.00,,,0.00,271,WeatherTracker,2013-03-26 14:50:00,
2013-03-26 07:55:00,56.2,22.7,29.88,NE,56,0.0,0.0,27,0.00,,,0.00,221,WeatherTracker,2013-03-26 14:55:00,
2013-03-26 08:00:00,56.9,23.3,29.88,NE,56,0.0,0.0,27,0.00,,,0.00,218,WeatherTracker,2013-03-26 15:00:00,
2013-03-26 08:10:00,58.3,22.6,29.89,NE,56,0.0,0.0,25,0.00,,,0.00,299,WeatherTracker,2013-03-26 15:10:00,
2013-03-26 08:15:00,59.1,22.4,29.89,NE,56,0.0,0.0,24,0.00,,,0.00,274,WeatherTracker,2013-03-26 15:15:00,
2013-03-26 08:25:00,60.5,21.5,29.89,NE,56,0.0,0.0,22,0.00,,,0.00,185,WeatherTracker,2013-03-26 15:25:00,
2013-03-26 08:30:00,61.2,22.1,29.89,NE,56,0.0,0.0,22,0.00,,,0.00,253,WeatherTracker,2013-03-26 15:30:00,
2013-03-26 08:35:00,62.0,21.6,29.89,NE,56,0.0,0.0,21,0.00,,,0.00,406,WeatherTracker,2013-03-26 15:35:00,
2013-03-26 08:40:00,62.8,22.3,29.89,NE,56,0.0,0.0,21,0.00,,,0.00,388,WeatherTracker,2013-03-26 15:40:00,
2013-03-26 08:50:00,64.7,20.2,29.89,NE,56,0.0,0.0,18,0.00,,,0.00,244,WeatherTracker,2013-03-26 15:50:00,
2013-03-26 08:55:00,65.6,21.0,29.89,NE,56,0.0,0.0,18,0.00,,,0.00,167,WeatherTracker,2013-03-26 15:55:00,
2013-03-26 09:00:00,66.4,18.9,29.89,NE,56,0.0,0.0,16,0.00,,,0.00,172,WeatherTracker,2013-03-26 16:00:00,
2013-03-26 09:05:00,67.1,19.4,29.89,NE,56,0.0,0.0,16,0.00,,,0.00,466,WeatherTracker,2013-03-26 16:05:00,
2013-03-26 09:10:00,67.8,20.0,29.89,NE,56,0.0,0.0,16,0.00,,,0.00,457,WeatherTracker,2013-03-26 16:10:00,
2013-03-26 09:20:00,69.7,20.0,29.89,NE,56,0.0,0.0,15,0.00,,,0.00,624,WeatherTracker,2013-03-26 16:20:00,
2013-03-26 09:30:00,71.7,20.0,29.88,NE,56,0.0,0.0,14,0.00,,,0.00,548,WeatherTracker,2013-03-26 16:30:00,
2013-03-26 09:40:00,73.5,19.6,29.88,NE,56,0.0,0.0,13,0.00,,,0.00,629,WeatherTracker,2013-03-26 16:40:00,
2013-03-26 09:45:00,74.4,18.5,29.88,South,184,0.0,0.0,12,0.00,,,0.00,675,WeatherTracker,2013-03-26 16:45:00,
2013-03-26 09:50:00,75.1,19.0,29.88,South,184,0.0,0.0,12,0.00,,,0.00,612,WeatherTracker,2013-03-26 16:50:00,
2013-03-26 10:00:00,76.2,19.9,29.88,SSW,198,1.0,0.0,12,0.00,,,0.00,722,WeatherTracker,2013-03-26 17:00:00,
2013-03-26 10:05:00,76.8,20.3,29.88,SSE,148,0.0,0.0,12,0.00,,,0.00,601,WeatherTracker,2013-03-26 17:05:00,
2013-03-26 10:15:00,78.0,19.2,29.87,South,178,0.0,0.0,11,0.00,,,0.00,842,WeatherTracker,2013-03-26 17:15:00,
2013-03-26 10:25:00,79.1,17.9,29.87,South,184,2.0,0.0,10,0.00,,,0.00,652,WeatherTracker,2013-03-26 17:25:00,
2013-03-26 10:35:00,79.4,15.7,29.87,SSW,205,0.0,0.0,9,0.00,,,0.00,592,WeatherTracker,2013-03-26 17:35:00,
2013-03-26 10:40:00,79.4,15.7,29.87,WNW,285,0.0,0.0,9,0.00,,,0.00,239,WeatherTracker,2013-03-26 17:40:00,
2013-03-26 10:45:00,79.3,18.0,29.87,SW,222,0.0,0.0,10,0.00,,,0.00,529,WeatherTracker,2013-03-26 17:45:00,
2013-03-26 10:55:00,79.4,15.7,29.86,SSE,155,0.0,0.0,9,0.00,,,0.00,559,WeatherTracker,2013-03-26 17:55:00,
2013-03-26 11:00:00,79.6,18.2,29.86,SSE,157,4.0,0.0,10,0.00,,,0.00,918,WeatherTracker,2013-03-26 18:00:00,
2013-03-26 11:10:00,80.1,16.2,29.86,ESE,107,1.0,0.0,9,0.00,,,0.00,601,WeatherTracker,2013-03-26 18:10:00,
2013-03-26 11:15:00,80.6,16.6,29.86,ESE,123,1.0,0.0,9,0.00,,,0.00,911,WeatherTracker,2013-03-26 18:15:00,
2013-03-26 11:25:00,81.2,14.3,29.85,NW,324,0.0,0.0,8,0.00,,,0.00,916,WeatherTracker,2013-03-26 18:25:00,
2013-03-26 11:35:00,81.7,14.7,29.85,North,360,0.0,0.0,8,0.00,,,0.00,949,WeatherTracker,2013-03-26 18:35:00,
2013-03-26 11:40:00,82.3,17.8,29.84,NNE,17,0.0,0.0,9,0.00,,,0.00,933,WeatherTracker,2013-03-26 18:40:00,
2013-03-26 11:45:00,82.6,15.3,29.84,WSW,243,1.0,0.0,8,0.00,,,0.00,926,WeatherTracker,2013-03-26 18:45:00,
2013-03-26 11:55:00,83.5,16.0,29.84,SSW,209,3.0,0.0,8,0.00,,,0.00,893,WeatherTracker,2013-03-26 18:55:00,
2013-03-26 12:00:00,83.9,16.3,29.84,West,276,2.0,0.0,8,0.00,,,0.00,956,WeatherTracker,2013-03-26 19:00:00,
2013-03-26 12:10:00,84.2,13.5,29.83,SW,221,1.0,0.0,7,0.00,,,0.00,719,WeatherTracker,2013-03-26 19:10:00,
2013-03-26 12:15:00,84.3,13.5,29.83,North,5,0.0,0.0,7,0.00,,,0.00,953,WeatherTracker,2013-03-26 19:15:00,
2013-03-26 12:20:00,84.4,13.6,29.83,SSE,153,1.0,0.0,7,0.00,,,0.00,178,WeatherTracker,2013-03-26 19:20:00,
2013-03-26 12:25:00,84.5,13.7,29.83,SSW,211,5.0,0.0,7,0.00,,,0.00,951,WeatherTracker,2013-03-26 19:25:00,
2013-03-26 12:30:00,84.7,13.8,29.83,WSW,252,1.0,0.0,7,0.00,,,0.00,949,WeatherTracker,2013-03-26 19:30:00,
2013-03-26 12:40:00,84.4,13.6,29.82,WNW,303,0.0,0.0,7,0.00,,,0.00,951,WeatherTracker,2013-03-26 19:40:00,
2013-03-26 12:45:00,84.4,13.6,29.82,South,182,1.0,0.0,7,0.00,,,0.00,904,WeatherTracker,2013-03-26 19:45:00,
2013-03-26 12:50:00,84.6,13.8,29.81,SSW,211,3.0,0.0,7,0.00,,,0.00,722,WeatherTracker,2013-03-26 19:50:00,
2013-03-26 13:00:00,85.1,10.7,29.81,ENE,74,0.0,0.0,6,0.00,,,0.00,756,WeatherTracker,2013-03-26 20:00:00,
2013-03-26 13:10:00,85.0,14.1,29.81,West,269,1.0,0.0,7,0.00,,,0.00,306,WeatherTracker,2013-03-26 20:10:00,
2013-03-26 13:15:00,85.0,10.6,29.81,West,277,4.0,0.0,6,0.00,,,0.00,689,WeatherTracker,2013-03-26 20:15:00,
2013-03-26 13:20:00,85.0,10.6,29.81,SSW,204,2.0,0.0,6,0.00,,,0.00,483,WeatherTracker,2013-03-26 20:20:00,
2013-03-26 13:25:00,85.3,10.8,29.80,SSW,207,0.0,0.0,6,0.00,,,0.00,833,WeatherTracker,2013-03-26 20:25:00,
2013-03-26 13:30:00,85.3,10.8,29.80,West,281,1.0,0.0,6,0.00,,,0.00,833,WeatherTracker,2013-03-26 20:30:00,
2013-03-26 13:40:00,84.8,10.4,29.80,West,280,0.0,0.0,6,0.00,,,0.00,512,WeatherTracker,2013-03-26 20:40:00,
2013-03-26 13:45:00,84.9,14.0,29.80,West,280,0.0,0.0,7,0.00,,,0.00,512,WeatherTracker,2013-03-26 20:45:00,
2013-03-26 13:55:00,85.2,10.7,29.79,West,281,4.0,0.0,6,0.00,,,0.00,392,WeatherTracker,2013-03-26 20:55:00,
2013-03-26 14:00:00,85.5,10.9,29.79,SSW,212,1.0,0.0,6,0.00,,,0.00,780,WeatherTracker,2013-03-26 21:00:00,
2013-03-26 14:05:00,85.7,14.6,29.79,WSW,244,0.0,0.0,7,0.00,,,0.00,315,WeatherTracker,2013-03-26 21:05:00,
2013-03-26 14:15:00,85.6,11.0,29.78,SW,215,3.0,0.0,6,0.00,,,0.00,417,WeatherTracker,2013-03-26 21:15:00,
2013-03-26 14:20:00,85.6,11.0,29.78,WNW,284,0.0,0.0,6,0.00,,,0.00,417,WeatherTracker,2013-03-26 21:20:00,
2013-03-26 14:30:00,84.8,10.4,29.77,West,281,2.0,0.0,6,0.00,,,0.00,229,WeatherTracker,2013-03-26 21:30:00,
2013-03-26 14:40:00,84.3,10.1,29.77,SW,219,1.0,0.0,6,0.00,,,0.00,649,WeatherTracker,2013-03-26 21:40:00,
2013-03-26 14:50:00,85.1,10.7,29.77,SW,223,3.0,0.0,6,0.00,,,0.00,691,WeatherTracker,2013-03-26 21:50:00,
2013-03-26 15:00:00,85.2,10.7,29.76,NE,49,0.0,0.0,6,0.00,,,0.00,294,WeatherTracker,2013-03-26 22:00:00,
2013-03-26 15:10:00,85.2,10.7,29.76,NW,304,1.0,0.0,6,0.00,,,0.00,262,WeatherTracker,2013-03-26 22:10:00,
2013-03-26 15:20:00,85.1,10.7,29.75,South,169,0.0,0.0,6,0.00,,,0.00,149,WeatherTracker,2013-03-26 22:20:00,
2013-03-26 15:25:00,84.9,10.5,29.75,West,267,1.0,0.0,6,0.00,,,0.00,155,WeatherTracker,2013-03-26 22:25:00,
2013-03-26 15:35:00,84.4,10.2,29.74,SW,219,0.0,0.0,6,0.00,,,0.00,204,WeatherTracker,2013-03-26 22:35:00,
2013-03-26 15:40:00,84.2,10.0,29.74,WNW,284,0.0,0.0,6,0.00,,,0.00,197,WeatherTracker,2013-03-26 22:40:00,
2013-03-26 15:45:00,84.0,9.9,29.74,SSW,203,3.0,0.0,6,0.00,,,0.00,218,WeatherTracker,2013-03-26 22:45:00,
2013-03-26 15:50:00,84.1,9.9,29.74,WSW,250,0.0,0.0,6,0.00,,,0.00,570,WeatherTracker,2013-03-26 22:50:00,
2013-03-26 16:00:00,84.8,10.4,29.73,WSW,258,1.0,0.0,6,0.00,,,0.00,258,WeatherTracker,2013-03-26 23:00:00,
2013-03-26 16:05:00,84.9,10.5,29.73,WNW,295,2.0,0.0,6,0.00,,,0.00,329,WeatherTracker,2013-03-26 23:05:00,
2013-03-26 16:15:00,85.2,10.7,29.73,WNW,283,9.0,0.0,6,0.00,,,0.00,149,WeatherTracker,2013-03-26 23:15:00,
2013-03-26 16:20:00,85.2,10.7,29.73,West,271,6.0,0.0,6,0.00,,,0.00,163,WeatherTracker,2013-03-26 23:20:00,
2013-03-26 16:25:00,84.8,10.4,29.73,West,267,0.0,0.0,6,0.00,,,0.00,244,WeatherTracker,2013-03-26 23:25:00,
2013-03-26 16:35:00,84.3,10.1,29.72,West,279,4.0,0.0,6,0.00,,,0.00,359,WeatherTracker,2013-03-26 23:35:00,
2013-03-26 16:45:00,84.1,9.9,29.72,WNW,286,5.0,0.0,6,0.00,,,0.00,376,WeatherTracker,2013-03-26 23:45:00,
2013-03-26 16:50:00,84.1,5.9,29.72,WNW,289,1.0,0.0,5,0.00,,,0.00,262,WeatherTracker,2013-03-26 23:50:00,
2013-03-26 16:55:00,84.1,9.9,29.72,WNW,282,7.0,0.0,6,0.00,,,0.00,141,WeatherTracker,2013-03-26 23:55:00,
2013-03-26 17:05:00,83.4,9.4,29.72,WNW,290,7.0,0.0,6,0.00,,,0.00,58,WeatherTracker,2013-03-27 00:05:00,
2013-03-26 17:10:00,82.8,9.0,29.72,West,274,2.0,0.0,6,0.00,,,0.00,134,WeatherTracker,2013-03-27 00:10:00,
2013-03-26 17:20:00,82.5,8.8,29.72,West,275,5.0,0.0,6,0.00,,,0.00,102,WeatherTracker,2013-03-27 00:20:00,
2013-03-26 17:25:00,82.6,8.9,29.72,West,277,0.0,0.0,6,0.00,,,0.00,86,WeatherTracker,2013-03-27 00:25:00,
2013-03-26 17:35:00,82.6,8.9,29.72,WSW,252,1.0,0.0,6,0.00,,,0.00,56,WeatherTracker,2013-03-27 00:35:00,
2013-03-26 17:40:00,82.6,8.9,29.72,West,263,3.0,0.0,6,0.00,,,0.00,35,WeatherTracker,2013-03-27 00:40:00,
2013-03-26 17:50:00,82.4,8.7,29.72,West,278,0.0,0.0,6,0.00,,,0.00,35,WeatherTracker,2013-03-27 00:50:00,
2013-03-26 17:55:00,82.2,8.6,29.72,West,269,2.0,0.0,6,0.00,,,0.00,26,WeatherTracker,2013-03-27 00:55:00,
2013-03-26 18:05:00,81.8,8.3,29.72,West,261,4.0,0.0,6,0.00,,,0.00,23,WeatherTracker,2013-03-27 01:05:00,
2013-03-26 18:10:00,81.5,11.5,29.72,West,277,0.0,0.0,7,0.00,,,0.00,18,WeatherTracker,2013-03-27 01:10:00,
2013-03-26 18:20:00,80.9,11.1,29.72,West,274,4.0,0.0,7,0.00,,,0.00,9,WeatherTracker,2013-03-27 01:20:00,
2013-03-26 18:25:00,80.5,10.8,29.72,West,281,1.0,0.0,7,0.00,,,0.00,7,WeatherTracker,2013-03-27 01:25:00,
2013-03-26 18:35:00,79.7,10.2,29.72,WNW,283,0.0,0.0,7,0.00,,,0.00,0,WeatherTracker,2013-03-27 01:35:00,
2013-03-26 18:40:00,79.3,9.9,29.72,WNW,286,2.0,0.0,7,0.00,,,0.00,0,WeatherTracker,2013-03-27 01:40:00,
2013-03-26 18:45:00,79.0,9.7,29.72,West,281,1.0,0.0,7,0.00,,,0.00,0,WeatherTracker,2013-03-27 01:45:00,
2013-03-26 18:55:00,78.4,12.2,29.73,WNW,286,1.0,0.0,8,0.00,,,0.00,0,WeatherTracker,2013-03-27 01:55:00,
2013-03-26 19:05:00,77.8,11.8,29.73,WNW,286,0.0,0.0,8,0.00,,,0.00,0,WeatherTracker,2013-03-27 02:05:00,
2013-03-26 19:15:00,77.0,11.2,29.73,WNW,286,0.0,0.0,8,0.00,,,0.00,0,WeatherTracker,2013-03-27 02:15:00,
2013-03-26 19:25:00,76.2,13.3,29.73,WNW,286,0.0,0.0,9,0.00,,,0.00,0,WeatherTracker,2013-03-27 02:25:00,
2013-03-26 19:30:00,75.8,13.0,29.73,WNW,286,0.0,0.0,9,0.00,,,0.00,0,WeatherTracker,2013-03-27 02:30:00,
2013-03-26 19:35:00,75.4,12.7,29.73,WNW,286,0.0,0.0,9,0.00,,,0.00,0,WeatherTracker,2013-03-27 02:35:00,
2013-03-26 19:40:00,75.0,14.7,29.73,WNW,286,0.0,0.0,10,0.00,,,0.00,0,WeatherTracker,2013-03-27 02:40:00,
2013-03-26 19:50:00,74.4,14.3,29.74,WNW,286,0.0,0.0,10,0.00,,,0.00,0,WeatherTracker,2013-03-27 02:50:00,
2013-03-26 20:00:00,73.7,13.8,29.74,WNW,284,0.0,0.0,10,0.00,,,0.00,0,WeatherTracker,2013-03-27 03:00:00,
2013-03-26 20:05:00,73.6,13.7,29.74,WNW,284,1.0,0.0,10,0.00,,,0.00,0,WeatherTracker,2013-03-27 03:05:00,
2013-03-26 20:10:00,73.7,13.8,29.75,WNW,286,1.0,0.0,10,0.00,,,0.00,0,WeatherTracker,2013-03-27 03:10:00,
2013-03-26 20:15:00,73.9,13.9,29.75,West,269,1.0,0.0,10,0.00,,,0.00,0,WeatherTracker,2013-03-27 03:15:00,
2013-03-26 20:20:00,74.1,14.1,29.75,West,279,1.0,0.0,10,0.00,,,0.00,0,WeatherTracker,2013-03-27 03:20:00,
2013-03-26 20:30:00,74.6,14.4,29.76,West,267,2.0,0.0,10,0.00,,,0.00,0,WeatherTracker,2013-03-27 03:30:00,
2013-03-26 20:40:00,74.7,14.5,29.76,West,266,6.0,0.0,10,0.00,,,0.00,0,WeatherTracker,2013-03-27 03:40:00,
2013-03-26 20:45:00,74.8,14.6,29.77,West,276,0.0,0.0,10,0.00,,,0.00,0,WeatherTracker,2013-03-27 03:45:00,
2013-03-26 20:50:00,74.8,14.6,29.77,West,278,2.0,0.0,10,0.00,,,0.00,0,WeatherTracker,2013-03-27 03:50:00,
2013-03-26 20:55:00,74.7,14.5,29.77,WNW,288,1.0,0.0,10,0.00,,,0.00,0,WeatherTracker,2013-03-27 03:55:00,
2013-03-26 21:00:00,74.5,14.4,29.77,West,271,1.0,0.0,10,0.00,,,0.00,0,WeatherTracker,2013-03-27 04:00:00,
2013-03-26 21:05:00,74.3,14.2,29.78,West,280,0.0,0.0,10,0.00,,,0.00,0,WeatherTracker,2013-03-27 04:05:00,
2013-03-26 21:10:00,74.1,16.2,29.78,WNW,289,1.0,0.0,11,0.00,,,0.00,0,WeatherTracker,2013-03-27 04:10:00,
2013-03-26 21:15:00,73.8,16.0,29.78,WNW,290,0.0,0.0,11,0.00,,,0.00,0,WeatherTracker,2013-03-27 04:15:00,
2013-03-26 21:25:00,73.3,15.6,29.78,WNW,284,2.0,0.0,11,0.00,,,0.00,0,WeatherTracker,2013-03-27 04:25:00,
2013-03-26 21:30:00,73.3,15.6,29.79,West,281,2.0,0.0,11,0.00,,,0.00,0,WeatherTracker,2013-03-27 04:30:00,
2013-03-26 21:35:00,73.3,15.6,29.79,WNW,288,0.0,0.0,11,0.00,,,0.00,0,WeatherTracker,2013-03-27 04:35:00,
2013-03-26 21:40:00,73.2,17.6,29.78,WNW,289,5.0,0.0,12,0.00,,,0.00,0,WeatherTracker,2013-03-27 04:40:00,
2013-03-26 21:45:00,73.1,17.5,29.79,WSW,252,1.0,0.0,12,0.00,,,0.00,0,WeatherTracker,2013-03-27 04:45:00,
2013-03-26 21:55:00,73.0,17.4,29.79,WNW,293,1.0,0.0,12,0.00,,,0.00,0,WeatherTracker,2013-03-27 04:55:00,
2013-03-26 22:00:00,72.9,17.3,29.79,WNW,282,1.0,0.0,12,0.00,,,0.00,0,WeatherTracker,2013-03-27 05:00:00,
2013-03-26 22:05:00,72.8,17.2,29.79,West,269,0.0,0.0,12,0.00,,,0.00,0,WeatherTracker,2013-03-27 05:05:00,
2013-03-26 22:10:00,72.6,18.9,29.80,West,269,0.0,0.0,13,0.00,,,0.00,0,WeatherTracker,2013-03-27 05:10:00,
2013-03-26 22:20:00,72.3,18.7,29.80,WNW,298,1.0,0.0,13,0.00,,,0.00,0,WeatherTracker,2013-03-27 05:20:00,
2013-03-26 22:25:00,72.2,18.6,29.80,West,277,2.0,0.0,13,0.00,,,0.00,0,WeatherTracker,2013-03-27 05:25:00,
2013-03-26 22:35:00,72.1,18.6,29.80,WNW,284,0.0,0.0,13,0.00,,,0.00,0,WeatherTracker,2013-03-27 05:35:00,
2013-03-26 22:40:00,72.0,16.6,29.80,WNW,282,0.0,0.0,12,0.00,,,0.00,0,WeatherTracker,2013-03-27 05:40:00,
2013-03-26 22:45:00,71.9,16.5,29.80,WNW,283,1.0,0.0,12,0.00,,,0.00,0,WeatherTracker,2013-03-27 05:45:00,
2013-03-26 22:55:00,71.6,16.3,29.80,West,278,5.0,0.0,12,0.00,,,0.00,0,WeatherTracker,2013-03-27 05:55:00,
2013-03-26 23:05:00,71.6,16.3,29.80,WNW,287,0.0,0.0,12,0.00,,,0.00,0,WeatherTracker,2013-03-27 06:05:00,
2013-03-26 23:10:00,71.5,16.2,29.81,SW,234,0.0,0.0,12,0.00,,,0.00,0,WeatherTracker,2013-03-27 06:10:00,
2013-03-26 23:15:00,71.3,17.9,29.81,ESE,115,0.0,0.0,13,0.00,,,0.00,0,WeatherTracker,2013-03-27 06:15:00,
2013-03-26 23:20:00,70.9,17.6,29.81,ESE,115,0.0,0.0,13,0.00,,,0.00,0,WeatherTracker,2013-03-27 06:20:00,
2013-03-26 23:30:00,69.6,18.3,29.81,ESE,113,0.0,0.0,14,0.00,,,0.00,0,WeatherTracker,2013-03-27 06:30:00,
2013-03-26 23:35:00,69.0,17.8,29.81,ESE,113,0.0,0.0,14,0.00,,,0.00,0,WeatherTracker,2013-03-27 06:35:00,
2013-03-26 23:40:00,68.4,17.4,29.81,ESE,113,0.0,0.0,14,0.00,,,0.00,0,WeatherTracker,2013-03-27 06:40:00,
2013-03-26 23:50:00,67.4,18.2,29.81,ESE,113,0.0,0.0,15,0.00,,,0.00,0,WeatherTracker,2013-03-27 06:50:00,